星链-6199 (STARLINK-6199 )

导读 | 豆包AI

STARLINK-6199(星链-6199)是美国太空探索技术公司(SpaceX)研发运营的Starlink v1.5卫星,属于星链互联网星座项目,于2023年5月14日发射升空。目前该卫星处于在轨运行状态,运行轨道近地点约558.3千米、远地点约559.8千米,轨道倾角43.004°,围绕地球运行周期约95.84分钟,可服务全球卫星互联网覆盖。

基本信息
目录编号:
56551
目录名称:
STARLINK-6199
国际标识:
2023-065BA
轨道中心:
EARTH
卫星名称:
星链-6199
卫星全名:
星链-6199 (STARLINK-6199 )
卫星状态:
在轨 (已飞行1036 天)
发射日期:
2023-05-14 UTC
国别 :
美国 (US)
星等 :
--
轨道信息
数据来源 国际轨道数据
星历时间: 2026-03-15T22:00:02+0800
7小时前
查看轨道信息
半长轴: 6885.953km
偏心率: 0.0001092
轨道倾角: 43.001°
近地点辐角 303.833°
升交点赤经 189.943°
平近点角 199.409°
近地点: 507.064km
远地点: 508.568km
周期: 94.778分钟
每日圈数: 15.193463
详细信息
固有亮度:
5
最大亮度:
2.5
卫星平台:
Starlink v1.5
覆盖范围:
全球
运营商:
太空探索技术公司
运营商所在国:
美国
制造商(研发单位):
太空探索技术公司
制造商所在国:
美国
使用方式:
暂无
卫星简介
星链(Starlink)计划是由太空探索技术公司(SpaceX)提出的一个巨型低轨卫星互联网星座项目,计划在2019年至2024年间在太空搭建由约1.2万颗卫星组成的“星链”网络,其中1584颗将部署在地球上空550千米处的近地轨道,并从2020年开始工作。该卫星仍在工作。
2D轨道图
3D轨道图
轨道高度分析图
轨道倾角分析图
轨道综合分析图
查看轨道综合分析图